Time,TemperatureF,DewpointF,PressureIn,WindDirection,WindDirectionDegrees,WindSpeedMPH,WindSpeedGustMPH,Humidity,HourlyPrecipIn,Conditions,Clouds,dailyrainin,SoftwareType,DateUTC
2013-01-24 00:04:00,14.2,10.3,30.14,East,83,1.0,2.0,84,0.00,RA,,0.00,WeatherDisplay:10.37,2013-01-24 05:04:00,
2013-01-24 00:09:00,14.2,9.4,30.14,East,80,2.0,4.0,81,0.00,OVC,,0.00,WeatherDisplay:10.37,2013-01-24 05:09:00,
2013-01-24 00:14:00,14.2,9.7,30.14,East,85,1.0,2.0,82,0.00,OVC,,0.00,WeatherDisplay:10.37,2013-01-24 05:14:00,
2013-01-24 00:19:00,14.2,9.4,30.14,East,84,0.0,2.0,81,0.00,OVC,,0.00,WeatherDisplay:10.37,2013-01-24 05:19:00,
2013-01-24 00:24:00,14.2,9.2,30.14,East,83,2.0,3.0,80,0.06,RA,,0.06,WeatherDisplay:10.37,2013-01-24 05:24:00,
2013-01-24 00:30:00,14.2,8.9,30.13,East,85,0.0,2.0,79,0.02,RA,,0.08,WeatherDisplay:10.37,2013-01-24 05:30:00,
2013-01-24 00:34:00,14.2,8.3,30.13,East,79,0.0,0.0,77,0.02,RA,,0.10,WeatherDisplay:10.37,2013-01-24 05:34:00,
2013-01-24 00:40:00,14.2,8.0,30.12,East,86,0.0,0.0,76,0.03,RA,,0.13,WeatherDisplay:10.37,2013-01-24 05:40:00,
2013-01-24 00:50:00,14.2,8.0,30.11,ENE,64,0.0,0.0,76,0.02,RA,,0.16,WeatherDisplay:10.37,2013-01-24 05:50:00,
2013-01-24 00:54:00,14.2,7.7,30.11,NNE,13,0.0,0.0,75,0.00,RA,,0.16,WeatherDisplay:10.37,2013-01-24 05:54:00,
2013-01-24 00:59:00,14.2,7.7,30.11,NNW,344,0.0,0.0,75,0.02,RA,,0.18,WeatherDisplay:10.37,2013-01-24 05:59:00,
2013-01-24 01:04:00,14.2,7.4,30.11,North,354,0.0,0.0,74,0.01,RA,,0.19,WeatherDisplay:10.37,2013-01-24 06:04:00,
2013-01-24 01:09:00,14.2,8.0,30.11,North,354,0.0,0.0,76,0.00,RA,,0.19,WeatherDisplay:10.37,2013-01-24 06:09:00,
2013-01-24 01:14:00,14.2,8.6,30.11,North,10,0.0,0.0,78,0.01,RA,,0.20,WeatherDisplay:10.37,2013-01-24 06:14:00,
2013-01-24 01:20:00,14.2,8.3,30.11,ENE,68,0.0,0.0,77,0.01,RA,,0.21,WeatherDisplay:10.37,2013-01-24 06:20:00,
2013-01-24 01:29:00,14.2,8.3,30.11,ESE,106,0.0,0.0,77,0.00,RA,,0.22,WeatherDisplay:10.37,2013-01-24 06:29:00,
2013-01-24 01:34:00,14.2,8.3,30.11,ESE,102,0.0,0.0,77,0.03,RA,,0.25,WeatherDisplay:10.37,2013-01-24 06:34:00,
2013-01-24 01:40:00,14.2,8.6,30.11,East,87,0.0,0.0,78,0.02,RA,,0.27,WeatherDisplay:10.37,2013-01-24 06:40:00,
2013-01-24 01:44:00,14.2,8.9,30.11,East,83,0.0,0.0,79,0.02,RA,,0.29,WeatherDisplay:10.37,2013-01-24 06:44:00,
2013-01-24 01:49:00,14.2,8.9,30.10,East,89,0.0,0.0,79,0.01,RA,,0.30,WeatherDisplay:10.37,2013-01-24 06:49:00,
2013-01-24 01:54:00,14.2,8.3,30.10,NE,55,0.0,0.0,77,0.01,RA,,0.31,WeatherDisplay:10.37,2013-01-24 06:54:00,
2013-01-24 01:59:00,14.2,8.3,30.10,NE,52,0.0,0.0,77,0.06,RA,,0.37,WeatherDisplay:10.37,2013-01-24 06:59:00,
2013-01-24 02:04:00,14.2,8.6,30.09,ENE,63,0.0,0.0,78,0.04,RA,,0.41,WeatherDisplay:10.37,2013-01-24 07:04:00,
2013-01-24 02:10:00,14.2,8.0,30.09,North,5,0.0,0.0,76,0.03,RA,,0.44,WeatherDisplay:10.37,2013-01-24 07:10:00,
2013-01-24 02:20:00,14.2,8.3,30.09,North,351,0.0,0.0,77,0.03,RA,,0.51,WeatherDisplay:10.37,2013-01-24 07:20:00,
2013-01-24 02:24:00,14.2,8.3,30.09,West,265,0.0,0.0,77,0.04,RA,,0.55,WeatherDisplay:10.37,2013-01-24 07:24:00,
2013-01-24 02:30:00,14.2,8.0,30.10,SW,233,0.0,0.0,76,0.01,RA,,0.56,WeatherDisplay:10.37,2013-01-24 07:30:00,
2013-01-24 02:40:00,14.2,8.6,30.10,SW,225,0.0,0.0,78,0.02,RA,,0.60,WeatherDisplay:10.37,2013-01-24 07:40:00,
2013-01-24 02:44:00,14.2,8.3,30.10,West,262,0.0,0.0,77,0.04,RA,,0.64,WeatherDisplay:10.37,2013-01-24 07:44:00,
2013-01-24 02:50:00,14.2,8.0,30.10,North,349,0.0,0.0,76,0.01,RA,,0.65,WeatherDisplay:10.37,2013-01-24 07:50:00,
2013-01-24 02:59:00,14.2,8.0,30.10,West,270,0.0,0.0,76,0.02,RA,,0.71,WeatherDisplay:10.37,2013-01-24 07:59:00,
2013-01-24 03:04:00,14.4,7.6,30.10,SSW,211,1.0,3.0,74,0.02,RA,,0.73,WeatherDisplay:10.37,2013-01-24 08:04:00,
2013-01-24 03:10:00,14.4,7.3,30.10,SSW,195,1.0,3.0,73,0.06,RA,,0.79,WeatherDisplay:10.37,2013-01-24 08:10:00,
2013-01-24 03:20:00,14.4,7.3,30.10,SSW,211,0.0,3.0,73,0.04,RA,,0.92,WeatherDisplay:10.37,2013-01-24 08:20:00,
2013-01-24 03:24:00,14.4,7.6,30.10,SW,225,0.0,3.0,74,0.03,RA,,0.95,WeatherDisplay:10.37,2013-01-24 08:24:00,
2013-01-24 03:30:00,14.4,7.6,30.10,SW,225,2.0,2.0,74,0.02,RA,,0.97,WeatherDisplay:10.37,2013-01-24 08:30:00,
2013-01-24 03:39:00,14.5,7.4,30.10,SW,225,0.0,0.0,73,0.01,RA,,1.01,WeatherDisplay:10.37,2013-01-24 08:39:00,
2013-01-24 03:44:00,14.5,7.4,30.10,SW,225,0.0,0.0,73,0.03,RA,,1.04,WeatherDisplay:10.37,2013-01-24 08:44:00,
2013-01-24 03:50:00,14.5,7.4,30.10,SW,225,0.0,0.0,73,0.01,RA,,1.05,WeatherDisplay:10.37,2013-01-24 08:50:00,
2013-01-24 03:54:00,14.7,7.9,30.10,SW,225,0.0,0.0,74,0.00,RA,,1.05,WeatherDisplay:10.37,2013-01-24 08:54:00,
2013-01-24 04:00:00,14.7,7.9,30.10,SW,225,0.0,0.0,74,0.00,OVC,,1.05,WeatherDisplay:10.37,2013-01-24 09:00:00,
2013-01-24 04:10:00,14.7,7.3,30.09,SW,225,0.0,0.0,72,0.02,RA,,1.09,WeatherDisplay:10.37,2013-01-24 09:10:00,
2013-01-24 04:19:00,14.5,5.9,30.09,WSW,256,1.0,2.0,68,0.00,RA,,1.19,WeatherDisplay:10.37,2013-01-24 09:19:00,
2013-01-24 04:24:00,14.5,6.8,30.09,NNW,337,0.0,3.0,71,0.00,OVC,,1.19,WeatherDisplay:10.37,2013-01-24 09:24:00,
2013-01-24 04:30:00,14.9,7.8,30.10,NW,309,0.0,1.0,73,0.01,RA,,1.20,WeatherDisplay:10.37,2013-01-24 09:30:00,
2013-01-24 04:39:00,14.9,4.9,30.10,NE,38,3.0,5.0,64,0.00,OVC,,1.20,WeatherDisplay:10.37,2013-01-24 09:39:00,
2013-01-24 04:44:00,14.9,5.2,30.10,NNE,31,2.0,3.0,65,0.02,RA,,1.22,WeatherDisplay:10.37,2013-01-24 09:44:00,
2013-01-24 04:50:00,14.9,5.6,30.10,NNE,18,0.0,6.0,66,0.03,RA,,1.25,WeatherDisplay:10.37,2013-01-24 09:50:00,
2013-01-24 04:59:00,14.9,6.2,30.10,North,10,3.0,6.0,68,0.01,RA,,1.28,WeatherDisplay:10.37,2013-01-24 09:59:00,
2013-01-24 05:04:00,14.9,6.2,30.11,North,10,2.0,4.0,68,0.03,RA,,1.31,WeatherDisplay:10.37,2013-01-24 10:04:00,
2013-01-24 05:09:00,14.9,6.2,30.11,North,5,1.0,6.0,68,0.00,RA,,1.31,WeatherDisplay:10.37,2013-01-24 10:09:00,
2013-01-24 05:14:00,14.9,6.6,30.11,NNE,19,2.0,5.0,69,0.00,OVC,,1.31,WeatherDisplay:10.37,2013-01-24 10:14:00,
2013-01-24 05:20:00,14.7,6.4,30.11,NE,41,5.0,6.0,69,0.00,OVC,,1.31,WeatherDisplay:10.37,2013-01-24 10:20:00,
2013-01-24 05:30:00,14.7,6.7,30.12,NNE,26,3.0,5.0,70,0.01,RA,,1.33,WeatherDisplay:10.37,2013-01-24 10:30:00,
2013-01-24 05:40:00,14.7,7.0,30.12,North,10,1.0,5.0,71,0.00,RA,,1.34,WeatherDisplay:10.37,2013-01-24 10:40:00,
2013-01-24 05:44:00,14.7,7.0,30.12,NNW,344,1.0,4.0,71,0.01,RA,,1.35,WeatherDisplay:10.37,2013-01-24 10:44:00,
2013-01-24 05:49:00,14.7,7.0,30.13,NNW,341,2.0,6.0,71,0.01,RA,,1.36,WeatherDisplay:10.37,2013-01-24 10:49:00,
2013-01-24 05:54:00,14.7,7.3,30.13,NNW,341,3.0,5.0,72,0.01,RA,,1.37,WeatherDisplay:10.37,2013-01-24 10:54:00,
2013-01-24 05:59:00,14.7,7.3,30.13,NNW,344,1.0,4.0,72,0.00,RA,,1.37,WeatherDisplay:10.37,2013-01-24 10:59:00,
2013-01-24 06:04:00,14.5,7.1,30.13,North,1,3.0,6.0,72,0.01,RA,,1.38,WeatherDisplay:10.37,2013-01-24 11:04:00,
2013-01-24 06:09:00,14.5,7.1,30.13,NNW,346,0.0,3.0,72,0.00,RA,,1.38,WeatherDisplay:10.37,2013-01-24 11:09:00,
2013-01-24 06:14:00,14.5,7.4,30.14,NW,326,2.0,3.0,73,0.00,OVC,,1.38,WeatherDisplay:10.37,2013-01-24 11:14:00,
2013-01-24 06:19:00,14.5,7.7,30.14,WNW,300,1.0,5.0,74,0.00,OVC,,1.38,WeatherDisplay:10.37,2013-01-24 11:19:00,
2013-01-24 06:24:00,14.5,7.4,30.14,WNW,298,1.0,5.0,73,0.00,OVC,,1.38,WeatherDisplay:10.37,2013-01-24 11:24:00,
2013-01-24 06:30:00,14.4,7.6,30.15,NW,314,3.0,4.0,74,0.00,OVC,,1.38,WeatherDisplay:10.37,2013-01-24 11:30:00,
2013-01-24 06:39:00,14.4,7.6,30.15,NNW,337,1.0,3.0,74,0.00,RA,,1.39,WeatherDisplay:10.37,2013-01-24 11:39:00,
2013-01-24 06:44:00,14.2,7.5,30.15,NW,312,1.0,4.0,74,0.02,RA,,1.41,WeatherDisplay:10.37,2013-01-24 11:44:00,
2013-01-24 06:49:00,14.2,7.4,30.15,West,274,2.0,4.0,74,0.02,RA,,1.43,WeatherDisplay:10.37,2013-01-24 11:49:00,
2013-01-24 06:55:00,14.2,7.7,30.15,WNW,303,0.0,3.0,75,0.01,RA,,1.44,WeatherDisplay:10.37,2013-01-24 11:55:00,
2013-01-24 06:59:00,14.2,8.0,30.15,WNW,291,0.0,2.0,76,0.04,RA,,1.48,WeatherDisplay:10.37,2013-01-24 11:59:00,
2013-01-24 07:04:00,14.2,8.0,30.16,West,278,1.0,3.0,76,0.00,RA,,1.48,WeatherDisplay:10.37,2013-01-24 12:04:00,
2013-01-24 07:10:00,14.2,8.3,30.16,WNW,288,0.0,3.0,77,0.01,RA,,1.49,WeatherDisplay:10.37,2013-01-24 12:10:00,
2013-01-24 07:20:00,14.2,8.3,30.16,West,280,1.0,2.0,77,0.00,RA,,1.52,WeatherDisplay:10.37,2013-01-24 12:20:00,
2013-01-24 07:24:00,14.2,8.3,30.16,West,276,2.0,3.0,77,0.02,RA,,1.54,WeatherDisplay:10.37,2013-01-24 12:24:00,
2013-01-24 07:30:00,14.2,8.3,30.16,WNW,285,0.0,2.0,77,0.00,RA,,1.54,WeatherDisplay:10.37,2013-01-24 12:30:00,
2013-01-24 07:34:00,14.2,8.6,30.16,SSW,212,0.0,0.0,78,0.02,RA,,1.56,WeatherDisplay:10.37,2013-01-24 12:34:00,
2013-01-24 07:39:00,14.2,8.3,30.17,NW,306,0.0,3.0,77,0.02,RA,,1.58,WeatherDisplay:10.37,2013-01-24 12:39:00,
2013-01-24 07:44:00,14.2,8.0,30.17,WNW,302,0.0,3.0,76,0.03,RA,,1.62,WeatherDisplay:10.37,2013-01-24 12:44:00,
2013-01-24 07:49:00,14.2,8.0,30.18,WSW,242,1.0,2.0,76,0.04,RA,,1.65,WeatherDisplay:10.37,2013-01-24 12:49:00,
2013-01-24 07:54:00,14.2,7.7,30.18,NW,320,1.0,4.0,75,0.02,RA,,1.67,WeatherDisplay:10.37,2013-01-24 12:54:00,
2013-01-24 07:59:00,14.2,7.1,30.18,NW,313,0.0,3.0,73,0.01,RA,,1.68,WeatherDisplay:10.37,2013-01-24 12:59:00,
2013-01-24 08:04:00,14.2,6.5,30.18,NW,310,1.0,4.0,71,0.03,RA,,1.71,WeatherDisplay:10.37,2013-01-24 13:04:00,
2013-01-24 08:09:00,14.2,5.9,30.18,NW,319,0.0,5.0,69,0.02,RA,,1.73,WeatherDisplay:10.37,2013-01-24 13:09:00,
2013-01-24 08:14:00,14.2,5.9,30.18,NW,313,5.0,6.0,69,0.03,RA,,1.76,WeatherDisplay:10.37,2013-01-24 13:14:00,
2013-01-24 08:19:00,14.7,6.0,30.18,NW,304,1.0,3.0,68,0.02,RA,,1.78,WeatherDisplay:10.37,2013-01-24 13:19:00,
2013-01-24 08:24:00,14.9,6.2,30.18,WNW,284,0.0,2.0,68,0.02,RA,,1.80,WeatherDisplay:10.37,2013-01-24 13:24:00,
2013-01-24 08:30:00,14.9,5.9,30.19,NW,305,2.0,3.0,67,0.01,RA,,1.81,WeatherDisplay:10.37,2013-01-24 13:30:00,
2013-01-24 08:40:00,15.1,6.1,30.19,NNW,337,5.0,5.0,67,0.00,RA,,1.90,WeatherDisplay:10.37,2013-01-24 13:40:00,
2013-01-24 08:50:00,16.0,7.0,30.20,NW,306,1.0,4.0,67,0.14,RA,,2.19,WeatherDisplay:10.37,2013-01-24 13:50:00,
2013-01-24 08:59:00,16.5,6.4,30.20,North,1,3.0,6.0,64,0.05,RA,,2.26,WeatherDisplay:10.37,2013-01-24 13:59:00,
2013-01-24 09:04:00,16.5,6.4,30.21,NNE,13,6.0,7.0,64,0.07,RA,,2.33,WeatherDisplay:10.37,2013-01-24 14:04:00,
2013-01-24 09:10:00,16.5,6.4,30.21,NE,36,7.0,7.0,64,0.00,RA,,2.33,WeatherDisplay:10.37,2013-01-24 14:10:00,
2013-01-24 09:14:00,16.9,6.1,30.21,NNE,23,3.0,7.0,62,0.03,RA,,2.37,WeatherDisplay:10.37,2013-01-24 14:14:00,
2013-01-24 09:20:00,17.0,6.2,30.21,NW,322,3.0,6.0,62,0.11,RA,,2.47,WeatherDisplay:10.37,2013-01-24 14:20:00,
2013-01-24 09:24:00,17.6,7.1,30.22,NW,320,5.0,6.0,63,0.13,RA,,2.60,WeatherDisplay:10.37,2013-01-24 14:24:00,
2013-01-24 09:30:00,17.6,6.4,30.22,NNW,346,3.0,8.0,61,0.03,RA,,2.63,WeatherDisplay:10.37,2013-01-24 14:30:00,
2013-01-24 09:34:00,18.1,6.5,30.22,North,355,3.0,7.0,60,0.06,RA,,2.69,WeatherDisplay:10.37,2013-01-24 14:34:00,
2013-01-24 09:39:00,18.3,6.4,30.23,North,9,5.0,7.0,59,0.07,RA,,2.76,WeatherDisplay:10.37,2013-01-24 14:39:00,
2013-01-24 09:44:00,18.3,5.6,30.23,NNE,15,6.0,8.0,57,0.01,RA,,2.77,WeatherDisplay:10.37,2013-01-24 14:44:00,
2013-01-24 09:49:00,18.7,6.3,30.23,North,1,6.0,6.0,58,0.04,RA,,2.81,WeatherDisplay:10.37,2013-01-24 14:49:00,
2013-01-24 09:54:00,19.2,6.4,30.23,North,6,6.0,7.0,57,0.03,RA,,2.84,WeatherDisplay:10.37,2013-01-24 14:54:00,
2013-01-24 09:59:00,19.7,7.3,30.23,NNW,330,6.0,8.0,58,0.08,RA,,2.92,WeatherDisplay:10.37,2013-01-24 14:59:00,
2013-01-24 10:04:00,19.1,5.9,30.24,NNW,342,5.0,8.0,56,0.20,RA,,3.12,WeatherDisplay:10.37,2013-01-24 15:04:00,
2013-01-24 10:09:00,19.0,6.2,30.24,North,352,2.0,8.0,57,0.15,RA,,3.27,WeatherDisplay:10.37,2013-01-24 15:09:00,
2013-01-24 10:15:00,19.2,6.1,30.25,North,5,6.0,9.0,56,0.06,RA,,3.33,WeatherDisplay:10.37,2013-01-24 15:15:00,
2013-01-24 10:19:00,18.9,6.2,30.25,North,4,5.0,7.0,57,0.06,RA,,3.39,WeatherDisplay:10.37,2013-01-24 15:19:00,
2013-01-24 10:25:00,18.9,5.8,30.25,North,355,6.0,9.0,56,0.02,RA,,3.41,WeatherDisplay:10.37,2013-01-24 15:25:00,
2013-01-24 10:34:00,19.4,7.0,30.26,NNE,13,10.0,13.0,58,0.05,RA,,3.55,WeatherDisplay:10.37,2013-01-24 15:34:00,
2013-01-24 10:39:00,19.4,7.0,30.26,NNE,17,12.0,12.0,58,0.00,RA,,3.55,WeatherDisplay:10.37,2013-01-24 15:39:00,
2013-01-24 10:44:00,18.9,7.3,30.26,North,1,3.0,12.0,60,0.24,RA,,3.79,WeatherDisplay:10.37,2013-01-24 15:44:00,
2013-01-24 10:50:00,18.9,7.7,30.26,North,351,5.0,9.0,61,0.06,RA,,3.86,WeatherDisplay:10.37,2013-01-24 15:50:00,
2013-01-24 10:54:00,19.5,8.2,30.26,North,1,2.0,8.0,61,0.16,RA,,4.01,WeatherDisplay:10.37,2013-01-24 15:54:00,
2013-01-24 10:59:00,19.8,8.5,30.26,NNW,334,2.0,6.0,61,0.05,RA,,4.06,WeatherDisplay:10.37,2013-01-24 15:59:00,
2013-01-24 11:04:00,19.7,8.4,30.26,NNE,21,6.0,8.0,61,0.04,RA,,4.10,WeatherDisplay:10.37,2013-01-24 16:04:00,
2013-01-24 11:09:00,19.5,8.6,30.26,North,9,3.0,7.0,62,0.01,RA,,4.11,WeatherDisplay:10.37,2013-01-24 16:09:00,
2013-01-24 11:14:00,20.3,8.6,30.26,North,7,6.0,7.0,60,0.00,RA,,4.11,WeatherDisplay:10.37,2013-01-24 16:14:00,
2013-01-24 11:19:00,20.6,8.9,30.26,NNW,337,3.0,6.0,60,0.06,RA,,4.17,WeatherDisplay:10.37,2013-01-24 16:19:00,
2013-01-24 11:24:00,20.3,7.9,30.27,NW,319,3.0,6.0,58,0.04,RA,,4.21,WeatherDisplay:10.37,2013-01-24 16:24:00,
2013-01-24 11:29:00,19.8,8.1,30.27,NNE,19,5.0,10.0,60,0.03,RA,,4.24,WeatherDisplay:10.37,2013-01-24 16:29:00,
2013-01-24 11:34:00,20.1,8.4,30.27,NNE,31,1.0,6.0,60,0.11,RA,,4.35,WeatherDisplay:10.37,2013-01-24 16:34:00,
2013-01-24 11:39:00,20.7,8.7,30.27,North,354,7.0,8.0,59,0.15,RA,,4.50,WeatherDisplay:10.37,2013-01-24 16:39:00,
2013-01-24 11:45:00,21.0,8.9,30.27,NNW,328,3.0,6.0,59,0.21,RA,,4.71,WeatherDisplay:10.37,2013-01-24 16:45:00,
2013-01-24 11:50:00,21.0,8.9,30.27,NW,313,5.0,6.0,59,0.18,RA,,4.89,WeatherDisplay:10.37,2013-01-24 16:50:00,
2013-01-24 11:55:00,21.2,9.1,30.27,West,265,7.0,8.0,59,0.00,RA,,4.89,WeatherDisplay:10.37,2013-01-24 16:55:00,
2013-01-24 11:59:00,21.6,9.1,30.27,West,261,7.0,9.0,58,0.00,CLR,,4.89,WeatherDisplay:10.37,2013-01-24 16:59:00,
2013-01-24 12:04:00,20.9,8.4,30.27,West,277,6.0,10.0,58,0.00,BKN,,4.89,WeatherDisplay:10.37,2013-01-24 17:04:00,
2013-01-24 12:09:00,20.7,8.3,30.27,NW,304,6.0,9.0,58,0.04,RA,,4.93,WeatherDisplay:10.37,2013-01-24 17:09:00,
2013-01-24 12:14:00,21.7,8.4,30.27,WNW,301,7.0,11.0,56,0.00,RA,,4.93,WeatherDisplay:10.37,2013-01-24 17:14:00,
2013-01-24 12:19:00,21.4,7.3,30.27,NW,308,3.0,14.0,54,0.01,RA,,4.94,WeatherDisplay:10.37,2013-01-24 17:19:00,
2013-01-24 12:24:00,21.2,7.1,30.27,WNW,295,9.0,9.0,54,0.00,RA,,4.94,WeatherDisplay:10.37,2013-01-24 17:24:00,
2013-01-24 12:30:00,21.7,8.0,30.28,WNW,283,3.0,9.0,55,0.00,BKN,,4.94,WeatherDisplay:10.37,2013-01-24 17:30:00,
2013-01-24 12:39:00,22.7,8.1,30.27,West,265,6.0,6.0,53,0.03,RA,,4.97,WeatherDisplay:10.37,2013-01-24 17:39:00,
2013-01-24 12:44:00,22.6,7.6,30.27,West,268,6.0,9.0,52,0.03,RA,,5.00,WeatherDisplay:10.37,2013-01-24 17:44:00,
2013-01-24 12:49:00,22.6,7.6,30.27,WNW,293,6.0,12.0,52,0.02,RA,,5.02,WeatherDisplay:10.37,2013-01-24 17:49:00,
2013-01-24 12:54:00,22.6,7.2,30.27,WNW,292,6.0,10.0,51,0.01,RA,,5.03,WeatherDisplay:10.37,2013-01-24 17:54:00,
2013-01-24 12:59:00,23.4,7.0,30.27,NW,309,6.0,9.0,49,0.01,RA,,5.04,WeatherDisplay:10.37,2013-01-24 17:59:00,
2013-01-24 13:04:00,23.0,6.7,30.27,WNW,300,8.0,11.0,49,0.02,RA,,5.06,WeatherDisplay:10.37,2013-01-24 18:04:00,
2013-01-24 13:10:00,23.4,7.0,30.27,WNW,302,6.0,7.0,49,0.01,RA,,5.07,WeatherDisplay:10.37,2013-01-24 18:10:00,
2013-01-24 13:14:00,24.1,6.7,30.27,NW,319,7.0,10.0,47,0.01,RA,,5.08,WeatherDisplay:10.37,2013-01-24 18:14:00,
2013-01-24 13:20:00,24.1,6.7,30.27,NNW,329,5.0,9.0,47,0.00,RA,,5.08,WeatherDisplay:10.37,2013-01-24 18:20:00,
2013-01-24 13:24:00,23.7,6.4,30.27,NW,321,7.0,9.0,47,0.00,CLR,,5.08,WeatherDisplay:10.37,2013-01-24 18:24:00,
2013-01-24 13:30:00,23.4,6.1,30.27,NW,312,6.0,9.0,47,0.00,CLR,,5.08,WeatherDisplay:10.37,2013-01-24 18:30:00,
2013-01-24 13:34:00,23.9,6.1,30.27,NW,313,6.0,10.0,46,0.02,RA,,5.10,WeatherDisplay:10.37,2013-01-24 18:34:00,
2013-01-24 13:40:00,23.4,4.7,30.28,NNW,334,6.0,11.0,44,0.00,RA,,5.10,WeatherDisplay:10.37,2013-01-24 18:40:00,
2013-01-24 13:44:00,23.7,4.9,30.28,NW,317,6.0,8.0,44,0.00,CLR,,5.10,WeatherDisplay:10.37,2013-01-24 18:44:00,
2013-01-24 13:50:00,24.4,5.1,30.28,NW,310,7.0,9.0,43,0.04,RA,,5.14,WeatherDisplay:10.37,2013-01-24 18:50:00,
2013-01-24 13:54:00,24.1,2.6,30.28,NNW,332,8.0,12.0,39,0.00,RA,,5.14,WeatherDisplay:10.37,2013-01-24 18:54:00,
2013-01-24 13:59:00,24.3,3.4,30.28,NNW,342,6.0,18.0,40,0.00,CLR,,5.14,WeatherDisplay:10.37,2013-01-24 18:59:00,
2013-01-24 14:04:00,23.7,2.9,30.28,WNW,296,7.0,14.0,40,0.00,CLR,,5.14,WeatherDisplay:10.37,2013-01-24 19:04:00,
2013-01-24 14:10:00,23.1,1.7,30.28,NNW,337,8.0,13.0,39,0.01,RA,,5.15,WeatherDisplay:10.37,2013-01-24 19:10:00,
2013-01-24 14:19:00,23.5,0.4,30.28,North,352,6.0,9.0,36,0.00,BKN,,5.15,WeatherDisplay:10.37,2013-01-24 19:19:00,
2013-01-24 14:24:00,23.7,1.8,30.29,NNW,345,8.0,12.0,38,0.00,BKN,,5.15,WeatherDisplay:10.37,2013-01-24 19:24:00,
2013-01-24 14:29:00,24.3,3.4,30.29,NW,319,8.0,11.0,40,0.00,BKN,,5.15,WeatherDisplay:10.37,2013-01-24 19:29:00,
2013-01-24 14:34:00,24.5,3.6,30.29,NW,321,6.0,8.0,40,0.00,BKN,,5.15,WeatherDisplay:10.37,2013-01-24 19:34:00,
2013-01-24 14:40:00,24.9,3.4,30.29,NW,321,6.0,10.0,39,0.00,BKN,,5.15,WeatherDisplay:10.37,2013-01-24 19:40:00,
2013-01-24 14:49:00,24.5,2.4,30.31,WNW,288,7.0,10.0,38,0.10,RA,,5.26,WeatherDisplay:10.37,2013-01-24 19:49:00,
2013-01-24 14:54:00,24.5,2.5,30.31,NW,307,7.0,14.0,38,0.07,RA,,5.33,WeatherDisplay:10.37,2013-01-24 19:54:00,
2013-01-24 14:59:00,24.0,2.0,30.31,NW,312,6.0,10.0,38,0.08,RA,,5.41,WeatherDisplay:10.37,2013-01-24 19:59:00,
2013-01-24 15:04:00,23.6,1.6,30.31,NNW,343,7.0,10.0,38,0.11,RA,,5.52,WeatherDisplay:10.37,2013-01-24 20:04:00,
2013-01-24 15:10:00,24.5,3.0,30.31,NW,322,7.0,16.0,39,0.05,RA,,5.57,WeatherDisplay:10.37,2013-01-24 20:10:00,
2013-01-24 15:14:00,24.2,2.2,30.31,WNW,300,5.0,9.0,38,0.00,RA,,5.57,WeatherDisplay:10.37,2013-01-24 20:14:00,
2013-01-24 15:20:00,24.2,2.2,30.31,WNW,286,9.0,16.0,38,0.00,OVC,,5.57,WeatherDisplay:10.37,2013-01-24 20:20:00,
2013-01-24 15:24:00,23.6,1.7,30.31,NNW,348,6.0,16.0,38,0.00,OVC,,5.57,WeatherDisplay:10.37,2013-01-24 20:24:00,
2013-01-24 15:30:00,23.7,1.8,30.32,NNW,344,7.0,8.0,38,0.01,RA,,5.58,WeatherDisplay:10.37,2013-01-24 20:30:00,
2013-01-24 15:34:00,23.5,1.5,30.32,NNW,343,7.0,9.0,38,0.00,RA,,5.58,WeatherDisplay:10.37,2013-01-24 20:34:00,
2013-01-24 15:40:00,23.4,1.5,30.33,NW,317,6.0,12.0,38,0.00,OVC,,5.58,WeatherDisplay:10.37,2013-01-24 20:40:00,
2013-01-24 15:44:00,23.2,1.3,30.33,NW,311,6.0,9.0,38,0.01,RA,,5.59,WeatherDisplay:10.37,2013-01-24 20:44:00,
2013-01-24 15:49:00,23.2,1.3,30.33,NW,313,6.0,9.0,38,0.05,RA,,5.64,WeatherDisplay:10.37,2013-01-24 20:49:00,
2013-01-24 15:54:00,23.0,1.1,30.33,NNW,337,3.0,10.0,38,0.05,RA,,5.69,WeatherDisplay:10.37,2013-01-24 20:54:00,
2013-01-24 15:59:00,23.3,1.9,30.33,NNW,340,8.0,10.0,39,0.06,RA,,5.75,WeatherDisplay:10.37,2013-01-24 20:59:00,
2013-01-24 16:04:00,23.4,2.0,30.34,NNW,328,3.0,6.0,39,0.01,RA,,5.76,WeatherDisplay:10.37,2013-01-24 21:04:00,
2013-01-24 16:10:00,23.0,1.2,30.34,NW,308,7.0,10.0,38,0.00,RA,,5.76,WeatherDisplay:10.37,2013-01-24 21:10:00,
2013-01-24 16:20:00,22.8,1.5,30.34,WNW,284,3.0,9.0,39,0.04,RA,,5.80,WeatherDisplay:10.37,2013-01-24 21:20:00,
2013-01-24 16:30:00,22.6,1.9,30.34,WNW,296,8.0,9.0,40,0.03,RA,,5.83,WeatherDisplay:10.37,2013-01-24 21:30:00,
2013-01-24 16:34:00,22.6,1.9,30.34,NNW,330,5.0,6.0,40,0.01,RA,,5.84,WeatherDisplay:10.37,2013-01-24 21:34:00,
2013-01-24 16:40:00,22.5,1.8,30.35,North,7,6.0,10.0,40,0.12,RA,,5.96,WeatherDisplay:10.37,2013-01-24 21:40:00,
2013-01-24 16:44:00,22.3,2.1,30.35,NNE,20,5.0,6.0,41,0.08,RA,,6.04,WeatherDisplay:10.37,2013-01-24 21:44:00,
2013-01-24 16:50:00,22.3,2.1,30.35,NNW,341,2.0,6.0,41,0.01,RA,,6.05,WeatherDisplay:10.37,2013-01-24 21:50:00,
2013-01-24 16:54:00,22.1,1.9,30.35,NNW,338,1.0,4.0,41,0.00,RA,,6.05,WeatherDisplay:10.37,2013-01-24 21:54:00,
2013-01-24 16:59:00,21.9,1.8,30.35,NNW,344,3.0,5.0,41,0.01,RA,,6.06,WeatherDisplay:10.37,2013-01-24 21:59:00,
2013-01-24 17:04:00,21.7,2.1,30.35,NW,321,2.0,5.0,42,0.01,RA,,6.07,WeatherDisplay:10.37,2013-01-24 22:04:00,
2013-01-24 17:10:00,21.4,1.8,30.35,NW,311,3.0,5.0,42,0.01,RA,,6.08,WeatherDisplay:10.37,2013-01-24 22:10:00,
2013-01-24 17:20:00,21.6,2.0,30.36,NNW,329,3.0,9.0,42,0.00,RA,,6.11,WeatherDisplay:10.37,2013-01-24 22:20:00,
2013-01-24 17:24:00,21.4,1.8,30.36,NNW,337,3.0,6.0,42,0.01,RA,,6.12,WeatherDisplay:10.37,2013-01-24 22:24:00,
2013-01-24 17:29:00,21.2,2.2,30.36,WNW,303,1.0,5.0,43,0.00,RA,,6.12,WeatherDisplay:10.37,2013-01-24 22:29:00,
2013-01-24 17:34:00,20.8,2.2,30.36,West,277,2.0,6.0,44,0.08,RA,,6.20,WeatherDisplay:10.37,2013-01-24 22:34:00,
2013-01-24 17:40:00,20.7,2.2,30.37,West,263,3.0,5.0,44,0.02,RA,,6.22,WeatherDisplay:10.37,2013-01-24 22:40:00,
2013-01-24 17:44:00,20.7,2.2,30.37,West,266,2.0,5.0,44,0.02,RA,,6.24,WeatherDisplay:10.37,2013-01-24 22:44:00,
2013-01-24 17:49:00,20.5,2.5,30.37,West,267,0.0,3.0,45,0.03,RA,,6.27,WeatherDisplay:10.37,2013-01-24 22:49:00,
2013-01-24 17:54:00,20.3,2.3,30.38,West,275,2.0,5.0,45,0.02,RA,,6.31,WeatherDisplay:10.37,2013-01-24 22:54:00,
2013-01-24 18:00:00,20.0,2.5,30.38,WNW,303,1.0,3.0,46,0.18,RA,,6.47,WeatherDisplay:10.37,2013-01-24 23:00:00,
2013-01-24 18:04:00,19.8,2.8,30.38,NW,305,2.0,4.0,47,0.08,RA,,6.55,WeatherDisplay:10.37,2013-01-24 23:04:00,
2013-01-24 18:10:00,20.1,3.1,30.38,West,275,3.0,5.0,47,0.01,RA,,6.56,WeatherDisplay:10.37,2013-01-24 23:10:00,
2013-01-24 18:20:00,19.9,2.9,30.39,NW,304,2.0,5.0,47,0.01,RA,,6.60,WeatherDisplay:10.37,2013-01-24 23:20:00,
2013-01-24 18:30:00,19.8,2.8,30.40,WSW,251,1.0,3.0,47,0.12,RA,,6.76,WeatherDisplay:10.37,2013-01-24 23:30:00,
2013-01-24 18:34:00,19.6,3.1,30.40,WSW,253,0.0,4.0,48,0.11,RA,,6.87,WeatherDisplay:10.37,2013-01-24 23:34:00,
2013-01-24 18:39:00,19.4,2.9,30.40,WSW,249,1.0,3.0,48,0.07,RA,,6.95,WeatherDisplay:10.37,2013-01-24 23:39:00,
2013-01-24 18:44:00,19.2,2.7,30.40,WSW,250,0.0,4.0,48,0.01,RA,,6.95,WeatherDisplay:10.37,2013-01-24 23:44:00,
2013-01-24 18:50:00,19.0,2.5,30.40,WSW,250,2.0,3.0,48,0.00,RA,,6.95,WeatherDisplay:10.37,2013-01-24 23:50:00,
2013-01-24 18:54:00,19.0,2.5,30.40,West,278,1.0,2.0,48,0.00,CLR,,6.95,WeatherDisplay:10.37,2013-01-24 23:54:00,
2013-01-24 18:59:00,18.7,2.2,30.40,West,280,0.0,3.0,48,0.02,RA,,6.97,WeatherDisplay:10.37,2013-01-24 23:59:00,
2013-01-24 19:04:00,18.6,2.6,30.41,WSW,254,3.0,4.0,49,0.00,RA,,6.97,WeatherDisplay:10.37,2013-01-25 00:04:00,
2013-01-24 19:10:00,18.9,2.4,30.41,WSW,253,1.0,5.0,48,0.00,CLR,,6.97,WeatherDisplay:10.37,2013-01-25 00:10:00,
2013-01-24 19:20:00,19.4,2.9,30.42,WSW,238,1.0,6.0,48,0.00,CLR,,6.97,WeatherDisplay:10.37,2013-01-25 00:20:00,
2013-01-24 19:24:00,19.2,2.7,30.42,WSW,239,1.0,4.0,48,0.00,CLR,,6.97,WeatherDisplay:10.37,2013-01-25 00:24:00,
2013-01-24 19:30:00,19.0,2.5,30.42,West,264,3.0,5.0,48,0.02,RA,,6.99,WeatherDisplay:10.37,2013-01-25 00:30:00,
2013-01-24 19:40:00,18.9,2.4,30.42,West,281,1.0,3.0,48,0.00,RA,,7.00,WeatherDisplay:10.37,2013-01-25 00:40:00,
2013-01-24 19:44:00,18.9,2.9,30.42,WSW,258,0.0,3.0,49,0.01,RA,,7.01,WeatherDisplay:10.37,2013-01-25 00:44:00,
2013-01-24 19:50:00,18.3,2.3,30.42,SW,230,0.0,3.0,49,0.00,RA,,7.01,WeatherDisplay:10.37,2013-01-25 00:50:00,
2013-01-24 19:54:00,18.1,2.6,30.42,SW,227,1.0,3.0,50,0.00,CLR,,7.01,WeatherDisplay:10.37,2013-01-25 00:54:00,
2013-01-24 20:00:00,18.1,2.6,30.42,WSW,237,2.0,3.0,50,0.01,RA,,7.02,WeatherDisplay:10.37,2013-01-25 01:00:00,
2013-01-24 20:09:00,18.0,2.5,30.42,WSW,255,1.0,4.0,50,0.04,RA,,7.07,WeatherDisplay:10.37,2013-01-25 01:09:00,
2013-01-24 20:14:00,18.0,2.5,30.43,WSW,249,2.0,3.0,50,0.09,RA,,7.16,WeatherDisplay:10.37,2013-01-25 01:14:00,
2013-01-24 20:20:00,18.0,2.5,30.43,WSW,244,2.0,3.0,50,0.02,RA,,7.18,WeatherDisplay:10.37,2013-01-25 01:20:00,
2013-01-24 20:30:00,17.8,2.7,30.42,WSW,238,1.0,3.0,51,0.01,RA,,7.20,WeatherDisplay:10.37,2013-01-25 01:30:00,
2013-01-24 20:35:00,17.8,2.7,30.42,SW,236,0.0,3.0,51,0.00,RA,,7.20,WeatherDisplay:10.37,2013-01-25 01:35:00,
2013-01-24 20:40:00,17.7,3.1,30.42,SW,233,1.0,2.0,52,0.00,CLR,,7.20,WeatherDisplay:10.37,2013-01-25 01:40:00,
2013-01-24 20:44:00,17.8,3.1,30.42,SW,224,1.0,2.0,52,0.00,CLR,,7.20,WeatherDisplay:10.37,2013-01-25 01:44:00,
2013-01-24 20:50:00,17.3,3.1,30.41,SW,220,0.0,3.0,53,0.00,CLR,,7.20,WeatherDisplay:10.37,2013-01-25 01:50:00,
2013-01-24 20:59:00,17.2,3.0,30.41,SW,230,2.0,5.0,53,0.00,CLR,,7.20,WeatherDisplay:10.37,2013-01-25 01:59:00,
2013-01-24 21:04:00,17.4,3.2,30.42,WSW,240,2.0,4.0,53,0.01,RA,,7.21,WeatherDisplay:10.37,2013-01-25 02:04:00,
2013-01-24 21:10:00,17.6,3.3,30.42,WSW,238,2.0,4.0,53,0.00,RA,,7.21,WeatherDisplay:10.37,2013-01-25 02:10:00,
2013-01-24 21:14:00,17.8,3.5,30.42,WSW,245,1.0,5.0,53,0.01,RA,,7.22,WeatherDisplay:10.37,2013-01-25 02:14:00,
2013-01-24 21:20:00,17.7,3.5,30.42,WSW,243,5.0,7.0,53,0.01,RA,,7.23,WeatherDisplay:10.37,2013-01-25 02:20:00,
2013-01-24 21:24:00,17.8,3.5,30.42,WSW,249,0.0,3.0,53,0.00,RA,,7.23,WeatherDisplay:10.37,2013-01-25 02:24:00,
2013-01-24 21:30:00,17.8,3.5,30.42,WSW,257,2.0,4.0,53,0.00,CLR,,7.23,WeatherDisplay:10.37,2013-01-25 02:30:00,
2013-01-24 21:34:00,17.8,3.5,30.42,WSW,254,3.0,7.0,53,0.00,CLR,,7.23,WeatherDisplay:10.37,2013-01-25 02:34:00,
2013-01-24 21:40:00,17.8,3.5,30.43,WSW,249,3.0,5.0,53,0.00,CLR,,7.23,WeatherDisplay:10.37,2013-01-25 02:40:00,
2013-01-24 21:44:00,18.0,3.7,30.43,WSW,254,1.0,6.0,53,0.00,CLR,,7.23,WeatherDisplay:10.37,2013-01-25 02:44:00,
2013-01-24 21:49:00,18.0,3.7,30.43,West,270,2.0,6.0,53,0.00,CLR,,7.23,WeatherDisplay:10.37,2013-01-25 02:49:00,
2013-01-24 21:54:00,18.0,3.7,30.43,West,266,2.0,4.0,53,0.00,CLR,,7.23,WeatherDisplay:10.37,2013-01-25 02:54:00,
2013-01-24 21:59:00,17.8,3.5,30.43,West,259,2.0,7.0,53,0.00,CLR,,7.23,WeatherDisplay:10.37,2013-01-25 02:59:00,
2013-01-24 22:04:00,17.9,3.6,30.42,WSW,251,5.0,6.0,53,0.00,CLR,,7.23,WeatherDisplay:10.37,2013-01-25 03:04:00,
2013-01-24 22:09:00,18.0,3.7,30.42,WSW,253,2.0,5.0,53,0.00,CLR,,7.23,WeatherDisplay:10.37,2013-01-25 03:09:00,
2013-01-24 22:14:00,17.8,3.5,30.42,West,265,1.0,3.0,53,0.00,CLR,,7.23,WeatherDisplay:10.37,2013-01-25 03:14:00,
2013-01-24 22:19:00,17.8,3.9,30.42,West,269,3.0,6.0,54,0.00,CLR,,7.23,WeatherDisplay:10.37,2013-01-25 03:19:00,
2013-01-24 22:29:00,17.4,3.2,30.43,West,269,1.0,3.0,53,0.00,CLR,,7.23,WeatherDisplay:10.37,2013-01-25 03:29:00,
2013-01-24 22:34:00,17.2,3.4,30.43,West,271,1.0,2.0,54,0.01,RA,,7.24,WeatherDisplay:10.37,2013-01-25 03:34:00,
2013-01-24 22:39:00,16.9,3.5,30.42,WSW,256,2.0,4.0,55,0.00,RA,,7.24,WeatherDisplay:10.37,2013-01-25 03:39:00,
2013-01-24 22:44:00,17.1,3.7,30.42,West,278,2.0,5.0,55,0.00,CLR,,7.24,WeatherDisplay:10.37,2013-01-25 03:44:00,
2013-01-24 22:49:00,17.2,3.8,30.42,WNW,292,1.0,6.0,55,0.00,CLR,,7.24,WeatherDisplay:10.37,2013-01-25 03:49:00,
2013-01-24 22:54:00,17.2,3.8,30.42,WNW,296,1.0,4.0,55,0.00,CLR,,7.24,WeatherDisplay:10.37,2013-01-25 03:54:00,
2013-01-24 22:59:00,17.1,3.7,30.42,WNW,297,1.0,3.0,55,0.00,CLR,,7.24,WeatherDisplay:10.37,2013-01-25 03:59:00,
2013-01-24 23:04:00,16.9,3.5,30.43,NW,321,3.0,5.0,55,0.00,CLR,,7.24,WeatherDisplay:10.37,2013-01-25 04:04:00,
2013-01-24 23:09:00,17.1,3.7,30.43,NW,314,3.0,5.0,55,0.00,CLR,,7.24,WeatherDisplay:10.37,2013-01-25 04:09:00,
2013-01-24 23:19:00,16.9,3.5,30.42,West,281,3.0,5.0,55,0.00,CLR,,7.24,WeatherDisplay:10.37,2013-01-25 04:19:00,
2013-01-24 23:24:00,16.9,3.5,30.43,West,265,2.0,6.0,55,0.00,CLR,,7.24,WeatherDisplay:10.37,2013-01-25 04:24:00,
2013-01-24 23:29:00,16.9,3.5,30.43,West,279,1.0,3.0,55,0.00,CLR,,7.24,WeatherDisplay:10.37,2013-01-25 04:29:00,
2013-01-24 23:34:00,16.7,3.3,30.43,West,269,2.0,5.0,55,0.00,CLR,,7.24,WeatherDisplay:10.37,2013-01-25 04:34:00,
2013-01-24 23:39:00,16.7,3.3,30.44,West,277,2.0,4.0,55,0.00,CLR,,7.24,WeatherDisplay:10.37,2013-01-25 04:39:00,
2013-01-24 23:44:00,16.7,3.3,30.44,WNW,285,3.0,6.0,55,0.00,CLR,,7.24,WeatherDisplay:10.37,2013-01-25 04:44:00,
2013-01-24 23:49:00,17.0,2.8,30.44,NW,309,5.0,7.0,53,0.00,CLR,,7.24,WeatherDisplay:10.37,2013-01-25 04:49:00,
2013-01-24 23:54:00,17.1,2.9,30.44,NW,304,6.0,8.0,53,0.01,RA,,7.25,WeatherDisplay:10.37,2013-01-25 04:54:00,
2013-01-24 23:59:00,17.1,2.9,30.44,NW,311,3.0,7.0,53,0.00,RA,,0.00,WeatherDisplay:10.37,2013-01-25 04:59:00,